SL-16 R/B

Satellite information

Favourite Embed

Satellite Type and Status

ROCKET BODYIN ORBIT

Key statistics

Satellite SL-16 R/B at a glance.

Uptime

12890

Days in orbit

Revolutions

≈ 14.1

Per day

Orbit

LEO

Low Earth Orbit

Inclination

71.0

Latest

Satellite identification and parameters

Extended collection of information and parameters for SL-16 R/B.

Object identification

Identified? True

Debris? False

Object name: SL-16 R/B

International designator: 1990-046B

Object number (NORAD): 20625

Object ID (CCSDS): 20625

Country: COMMONWEALTH OF INDEPENDENT STATES (CIS)

Current information (Y/N): Y

RCS size: LARGE

Orbital parameters

Period: 101.769 minutes

Inclination: 71.001 deg

SMA: 7220.541 km

Apoapsis: 853.928 km

Periapsis: 830.884 km

RAAN: 329.5435 deg

Eccentricy: 0.00159576

Argument of periapsis: 233.1909 deg

Mean anomaly: 126.775 deg

Mean motion: 14.14973085 rev/day

Mean motion (dot): 0.00000097 rev/day2

B* drag term: 0.000074567703 1/REarth

Two-line elements (TLE)

Creation date: Sept. 4, 2025, 10:13 a.m.

Reference frame: TEME

Reference center: EARTH

Epoch: Sept. 4, 2025, 5:02 a.m. UTC

TLE line 0: 0 SL-16 R/B

TLE line 1: 1 20625U 90046B 25247.20997911 .00000097 00000-0 74568-4 0 9992

TLE line 2: 2 20625 71.0010 329.5435 0015958 233.1909 126.7750 14.14973085822015

Live tracking on map

Real-time ground track for satellite SL-16 R/B.

In-orbit conjunctions

A list of the most updated potential collisions computed for object SL-16 R/B.

Target Orbit TCA Probability of collision Miss distance Type
METEOR 2-8 DEB LEO 2025-08-22 02:54:34 0.00021268 84.0 (m) DEBRIS
FENGYUN 1C DEB SSO 2025-06-09 19:53:52 0.0001566715 129.0 (m) DEBRIS
FENGYUN 1C DEB SSO 2024-11-09 19:49:00 0.0004614529 249.0 (m) DEBRIS
FENGYUN 1C DEB SSO 2024-08-04 13:55:39 0.0002712284 254.0 (m) DEBRIS
NOAA 16 DEB SSO 2024-06-28 16:04:40 0.000434058 260.0 (m) DEBRIS

Associated space launch

Second generation ELING satellite

SL-16 R/B was lifted into orbit during the mission ‘Zenit-2 | Tselina-2 7’, on board a Zenit-2 space rocket.

The launch took place on May 22, 1990, 5:14 a.m. from 45/2.

For more information about the launch, click the button.

Launch to space Zenit-2 | Tselina-2 7
Zenit-2 | Tselina-2 7

Agency: N/A

Status: Launch Successful

Launch date: May 22, 1990, 5:14 a.m. UTC

Rocket: Zenit-2

Launch pad: 45/2

Location: Baikonur Cosmodrome, Republic of Kazakhstan

...

Latest news about this satellite

There are no fresh news available about this satellite. Check back as we update our databases every day.


Newsletter sign-up

Weekly statistics, charts and insights to help you stay on top of the space industry.